Location: Baili�vre
(50.0696°N, 4.2409°E)
Time: 04:45:38
(UTC+00:00)

MTI - Pass Details

Date: 08 August 2020
Orbit: 394 x 402 km, 97.5° (Epoch: 19 September)

Event Time Altitude Azimuth Distance (km) Brightness Sun altitude
Rises 22:13:59 0° 12° (NNE) 2,324 8.4 -20.9°
Reaches altitude 10° 22:15:58 10° 11° (N) 1,461 7.2 -21.0°
Enters shadow 22:18:41 63° 350° (N) 456 4.1 -21.2°
